BVN943 KMEM-KHSV

Flight info

Callsign BVN943
Flight time 1h 5m
Altitude 7000
Route ELVIS4 ETREE
Aircraft C208/L-SDFGR/C

Departure

Time 2026-04-22 07:58
Airport Memphis International Airport (KMEM)

Arrival

Time 2026-04-22 09:03
Airport Huntsville International Airport (KHSV)
Time Latitude Longitude Altitude Speed Heading
2026-04-22 07:38 35.03292 -89.96688 304 ft 0 kts 271°
2026-04-22 07:47 35.03293 -89.96704 304 ft 6 kts 275°
2026-04-22 07:47 35.03303 -89.96795 302 ft 15 kts 281°
2026-04-22 07:47 35.03384 -89.96854 304 ft 18 kts 360°
2026-04-22 07:47 35.03532 -89.96853 307 ft 24 kts
2026-04-22 07:48 35.03708 -89.96855 307 ft 26 kts 357°
2026-04-22 07:48 35.03802 -89.96954 308 ft 17 kts 269°
2026-04-22 07:48 35.03819 -89.97105 309 ft 19 kts 329°
2026-04-22 07:48 35.03975 -89.97096 308 ft 26 kts
2026-04-22 07:49 35.04172 -89.97095 310 ft 31 kts 358°
2026-04-22 07:49 35.04397 -89.97072 312 ft 34 kts 12°
2026-04-22 07:49 35.04620 -89.97061 317 ft 31 kts 356°
2026-04-22 07:49 35.04835 -89.97070 321 ft 20 kts 348°
2026-04-22 07:50 35.04871 -89.97210 325 ft 21 kts 269°
2026-04-22 07:50 35.04868 -89.97422 317 ft 30 kts 267°
2026-04-22 07:50 35.04870 -89.97512 314 ft 0 kts 274°
2026-04-22 07:50 35.04871 -89.97513 314 ft 1 kts 274°
2026-04-22 07:51 35.04868 -89.97596 314 ft 13 kts 267°
2026-04-22 07:51 35.04864 -89.97684 313 ft 17 kts 266°
2026-04-22 07:51 35.04796 -89.97738 311 ft 14 kts 180°
2026-04-22 07:51 35.04681 -89.97749 311 ft 17 kts 185°
2026-04-22 07:52 35.04557 -89.97748 314 ft 19 kts 180°
2026-04-22 07:52 35.04420 -89.97747 315 ft 22 kts 178°
2026-04-22 07:52 35.04256 -89.97743 314 ft 25 kts 180°
2026-04-22 07:52 35.04075 -89.97739 314 ft 28 kts 179°
2026-04-22 07:53 35.03908 -89.97748 308 ft 16 kts 221°
2026-04-22 07:53 35.03889 -89.97883 310 ft 18 kts 266°
2026-04-22 07:53 35.03887 -89.98064 307 ft 25 kts 271°
2026-04-22 07:53 35.03881 -89.98293 305 ft 28 kts 265°
2026-04-22 07:54 35.03878 -89.98525 304 ft 21 kts 270°
2026-04-22 07:54 35.03988 -89.98588 299 ft 24 kts
2026-04-22 07:54 35.04182 -89.98587 298 ft 30 kts 355°
2026-04-22 07:54 35.04407 -89.98597 294 ft 34 kts 359°
2026-04-22 07:55 35.04647 -89.98605 296 ft 35 kts 358°
2026-04-22 07:55 35.04862 -89.98610 297 ft 26 kts 360°
2026-04-22 07:55 35.04934 -89.98662 298 ft 0 kts 273°
2026-04-22 07:56 35.04935 -89.98664 298 ft 2 kts 274°
2026-04-22 07:56 35.04931 -89.98719 297 ft 11 kts 260°
2026-04-22 07:56 35.04877 -89.98743 297 ft 0 kts 178°
2026-04-22 07:57 35.04795 -89.98742 296 ft 32 kts 181°
2026-04-22 07:57 35.04430 -89.98735 294 ft 72 kts 179°
2026-04-22 07:57 35.03856 -89.98722 407 ft 85 kts 181°
2026-04-22 07:57 35.03276 -89.98776 631 ft 82 kts 191°
2026-04-22 07:58 35.02806 -89.98932 908 ft 61 kts 200°
2026-04-22 07:58 35.02387 -89.99111 997 ft 64 kts 203°
2026-04-22 07:58 35.01985 -89.99318 1124 ft 61 kts 206°
2026-04-22 07:58 35.01610 -89.99510 1266 ft 56 kts 208°
2026-04-22 07:59 35.01277 -89.99724 1351 ft 56 kts 221°
2026-04-22 07:59 35.00986 -90.00006 1492 ft 52 kts 220°
2026-04-22 07:59 35.00708 -90.00264 1607 ft 49 kts 220°
2026-04-22 07:59 35.00443 -90.00520 1715 ft 48 kts 221°
2026-04-22 08:00 35.00182 -90.00786 1765 ft 52 kts 224°
2026-04-22 08:00 34.99830 -90.00871 1842 ft 61 kts 185°
2026-04-22 08:00 34.99410 -90.00532 1835 ft 94 kts 130°
2026-04-22 08:00 34.99323 -89.99652 1913 ft 108 kts 105°
2026-04-22 08:01 34.99224 -89.98702 1915 ft 121 kts 107°
2026-04-22 08:01 34.99120 -89.97616 1856 ft 135 kts 104°
2026-04-22 08:01 34.99016 -89.96460 1846 ft 139 kts 103°
2026-04-22 08:01 34.98909 -89.95289 1905 ft 136 kts 103°
2026-04-22 08:02 34.98807 -89.94163 2041 ft 130 kts 105°
2026-04-22 08:02 34.98705 -89.93101 2176 ft 124 kts 107°
2026-04-22 08:02 34.98603 -89.92075 2315 ft 121 kts 107°
2026-04-22 08:02 34.98501 -89.91061 2456 ft 119 kts 107°
2026-04-22 08:03 34.98411 -89.90090 2588 ft 112 kts 106°
2026-04-22 08:03 34.98327 -89.89171 2715 ft 106 kts 107°
2026-04-22 08:03 34.98245 -89.88303 2837 ft 100 kts 109°
2026-04-22 08:03 34.98168 -89.87486 2956 ft 94 kts 109°
2026-04-22 08:04 34.98097 -89.86721 3070 ft 88 kts 110°
2026-04-22 08:04 34.98013 -89.85921 2977 ft 112 kts 110°
2026-04-22 08:04 34.97915 -89.84981 3111 ft 110 kts 108°
2026-04-22 08:04 34.97825 -89.84064 3253 ft 108 kts 108°
2026-04-22 08:05 34.97742 -89.83167 3386 ft 105 kts 108°
2026-04-22 08:05 34.97657 -89.82289 3520 ft 103 kts 109°
2026-04-22 08:05 34.97575 -89.81433 3642 ft 100 kts 109°
2026-04-22 08:05 34.97493 -89.80600 3731 ft 98 kts 110°
2026-04-22 08:06 34.97413 -89.79778 3819 ft 98 kts 110°
2026-04-22 08:06 34.97329 -89.78945 3916 ft 102 kts 111°
2026-04-22 08:06 34.97229 -89.78058 4072 ft 102 kts 108°
2026-04-22 08:06 34.97145 -89.77196 4209 ft 104 kts 110°
2026-04-22 08:07 34.97056 -89.76311 4341 ft 106 kts 110°
2026-04-22 08:07 34.96964 -89.75401 4473 ft 110 kts 109°
2026-04-22 08:07 34.96870 -89.74461 4605 ft 114 kts 109°
2026-04-22 08:07 34.96771 -89.73483 4739 ft 119 kts 108°
2026-04-22 08:08 34.96670 -89.72456 4879 ft 125 kts 108°
2026-04-22 08:08 34.96563 -89.71379 5014 ft 131 kts 108°
2026-04-22 08:08 34.96451 -89.70260 5144 ft 136 kts 107°
2026-04-22 08:08 34.96334 -89.69096 5267 ft 141 kts 107°
2026-04-22 08:09 34.96214 -89.67896 5385 ft 145 kts 106°
2026-04-22 08:09 34.96092 -89.66660 5502 ft 149 kts 105°
2026-04-22 08:09 34.95966 -89.65392 5617 ft 152 kts 105°
2026-04-22 08:09 34.95838 -89.64106 5728 ft 154 kts 105°
2026-04-22 08:10 34.95708 -89.62798 5836 ft 157 kts 105°
2026-04-22 08:10 34.95574 -89.61470 5942 ft 159 kts 105°
2026-04-22 08:10 34.95440 -89.60128 6048 ft 160 kts 105°
2026-04-22 08:10 34.95305 -89.58774 6152 ft 161 kts 105°
2026-04-22 08:11 34.95168 -89.57418 6256 ft 162 kts 105°
2026-04-22 08:11 34.95032 -89.56055 6359 ft 162 kts 105°
2026-04-22 08:11 34.94893 -89.54685 6457 ft 163 kts 105°
2026-04-22 08:11 34.94755 -89.53310 6567 ft 164 kts 105°
2026-04-22 08:12 34.94615 -89.51931 6666 ft 164 kts 105°
2026-04-22 08:12 34.94475 -89.50546 6762 ft 165 kts 104°
2026-04-22 08:12 34.94335 -89.49158 6859 ft 165 kts 104°
2026-04-22 08:12 34.94193 -89.47763 6956 ft 166 kts 104°
2026-04-22 08:13 34.94052 -89.46367 7053 ft 166 kts 104°
2026-04-22 08:13 34.93910 -89.44970 7150 ft 166 kts 104°
2026-04-22 08:13 34.93768 -89.43568 7210 ft 169 kts 104°
2026-04-22 08:13 34.93617 -89.42125 7217 ft 173 kts 104°
2026-04-22 08:14 34.93467 -89.40654 7228 ft 176 kts 104°
2026-04-22 08:14 34.93314 -89.39158 7229 ft 179 kts 103°
2026-04-22 08:14 34.93160 -89.37648 7229 ft 180 kts 103°
2026-04-22 08:14 34.93004 -89.36128 7231 ft 181 kts 103°
2026-04-22 08:15 34.92851 -89.34620 7231 ft 182 kts 103°
2026-04-22 08:15 34.92694 -89.33092 7230 ft 182 kts 103°
2026-04-22 08:15 34.92536 -89.31557 7231 ft 183 kts 103°
2026-04-22 08:15 34.92379 -89.30022 7231 ft 183 kts 103°
2026-04-22 08:16 34.92220 -89.28485 7234 ft 183 kts 103°
2026-04-22 08:16 34.92062 -89.26944 7234 ft 183 kts 103°
2026-04-22 08:16 34.91903 -89.25409 7233 ft 183 kts 103°
2026-04-22 08:16 34.91744 -89.23868 7233 ft 183 kts 103°
2026-04-22 08:17 34.91584 -89.22330 7225 ft 183 kts 102°
2026-04-22 08:17 34.91426 -89.20790 7225 ft 183 kts 102°
2026-04-22 08:17 34.91266 -89.19255 7224 ft 183 kts 102°
2026-04-22 08:17 34.91107 -89.17718 7223 ft 183 kts 102°
2026-04-22 08:18 34.90947 -89.16180 7220 ft 183 kts 102°
2026-04-22 08:18 34.90786 -89.14642 7221 ft 183 kts 102°
2026-04-22 08:18 34.90625 -89.13100 7221 ft 183 kts 102°
2026-04-22 08:18 34.90465 -89.11557 7221 ft 184 kts 102°
2026-04-22 08:19 34.90303 -89.10015 7221 ft 184 kts 102°
2026-04-22 08:19 34.90141 -89.08468 7220 ft 184 kts 102°
2026-04-22 08:19 34.89980 -89.06926 7223 ft 184 kts 102°
2026-04-22 08:19 34.89818 -89.05383 7223 ft 184 kts 102°
2026-04-22 08:20 34.89656 -89.03838 7224 ft 184 kts 102°
2026-04-22 08:20 34.89493 -89.02294 7223 ft 184 kts 102°
2026-04-22 08:20 34.89331 -89.00751 7223 ft 184 kts 102°
2026-04-22 08:20 34.89168 -88.99211 7222 ft 183 kts 103°
2026-04-22 08:21 34.89008 -88.97687 7219 ft 183 kts 102°
2026-04-22 08:21 34.88842 -88.96127 7219 ft 183 kts 102°
2026-04-22 08:21 34.88680 -88.94589 7219 ft 184 kts 103°
2026-04-22 08:21 34.88517 -88.93048 7219 ft 184 kts 103°
2026-04-22 08:22 34.88353 -88.91503 7221 ft 184 kts 102°
2026-04-22 08:22 34.88191 -88.89979 7220 ft 184 kts 103°
2026-04-22 08:22 34.88028 -88.88439 7220 ft 184 kts 103°
2026-04-22 08:22 34.87860 -88.86874 7219 ft 184 kts 103°
2026-04-22 08:23 34.87697 -88.85333 7218 ft 183 kts 102°
2026-04-22 08:23 34.87533 -88.83798 7221 ft 183 kts 102°
2026-04-22 08:23 34.87368 -88.82265 7221 ft 183 kts 102°
2026-04-22 08:23 34.87204 -88.80731 7220 ft 183 kts 102°
2026-04-22 08:24 34.87040 -88.79197 7220 ft 183 kts 102°
2026-04-22 08:24 34.86876 -88.77665 7221 ft 183 kts 102°
2026-04-22 08:24 34.86711 -88.76131 7220 ft 183 kts 102°
2026-04-22 08:24 34.86548 -88.74617 7220 ft 183 kts 102°
2026-04-22 08:25 34.86382 -88.73080 7219 ft 183 kts 102°
2026-04-22 08:25 34.86216 -88.71530 7222 ft 182 kts 102°
2026-04-22 08:25 34.86052 -88.70016 7221 ft 182 kts 102°
2026-04-22 08:25 34.85888 -88.68489 7221 ft 182 kts 102°
2026-04-22 08:26 34.85722 -88.66958 7220 ft 182 kts 102°
2026-04-22 08:26 34.85557 -88.65429 7219 ft 182 kts 102°
2026-04-22 08:26 34.85390 -88.63895 7221 ft 182 kts 102°
2026-04-22 08:26 34.85223 -88.62365 7220 ft 182 kts 102°
2026-04-22 08:27 34.85058 -88.60838 7220 ft 182 kts 102°
2026-04-22 08:27 34.84892 -88.59307 7220 ft 182 kts 102°
2026-04-22 08:27 34.84725 -88.57779 7219 ft 182 kts 102°
2026-04-22 08:27 34.84559 -88.56251 7221 ft 182 kts 102°
2026-04-22 08:28 34.84392 -88.54721 7221 ft 182 kts 102°
2026-04-22 08:28 34.84224 -88.53191 7220 ft 182 kts 102°
2026-04-22 08:28 34.84057 -88.51662 7220 ft 182 kts 102°
2026-04-22 08:28 34.83889 -88.50134 7219 ft 182 kts 102°
2026-04-22 08:29 34.83722 -88.48608 7222 ft 182 kts 102°
2026-04-22 08:29 34.83554 -88.47079 7221 ft 182 kts 102°
2026-04-22 08:29 34.83385 -88.45551 7221 ft 182 kts 102°
2026-04-22 08:29 34.83218 -88.44025 7221 ft 182 kts 102°
2026-04-22 08:30 34.83050 -88.42505 7222 ft 181 kts 102°
2026-04-22 08:30 34.82883 -88.40985 7222 ft 181 kts 102°
2026-04-22 08:30 34.82715 -88.39465 7222 ft 181 kts 102°
2026-04-22 08:30 34.82546 -88.37945 7222 ft 181 kts 102°
2026-04-22 08:31 34.82379 -88.36428 7223 ft 181 kts 102°
2026-04-22 08:31 34.82210 -88.34911 7223 ft 181 kts 102°
2026-04-22 08:31 34.81873 -88.31868 7224 ft 181 kts 102°
2026-04-22 08:32 34.81707 -88.30383 7223 ft 181 kts 102°
2026-04-22 08:32 34.81538 -88.28865 7223 ft 181 kts 102°
2026-04-22 08:32 34.81369 -88.27350 7222 ft 181 kts 102°
2026-04-22 08:32 34.81199 -88.25832 7223 ft 181 kts 102°
2026-04-22 08:33 34.81030 -88.24316 7225 ft 181 kts 102°
2026-04-22 08:33 34.80860 -88.22796 7227 ft 181 kts 102°
2026-04-22 08:33 34.80690 -88.21279 7227 ft 181 kts 102°
2026-04-22 08:33 34.80504 -88.19763 7226 ft 181 kts 104°
2026-04-22 08:34 34.80274 -88.18260 7227 ft 180 kts 106°
2026-04-22 08:34 34.80002 -88.16774 7226 ft 180 kts 108°
2026-04-22 08:34 34.79687 -88.15303 7227 ft 179 kts 110°
2026-04-22 08:34 34.79331 -88.13850 7226 ft 179 kts 112°
2026-04-22 08:35 34.78935 -88.12420 7226 ft 178 kts 114°
2026-04-22 08:35 34.78497 -88.11009 7225 ft 178 kts 117°
2026-04-22 08:35 34.78021 -88.09625 7225 ft 177 kts 118°
2026-04-22 08:35 34.77505 -88.08265 7226 ft 177 kts 121°
2026-04-22 08:36 34.76959 -88.06924 7223 ft 177 kts 122°
2026-04-22 08:36 34.76639 -88.05467 7213 ft 182 kts 99°
2026-04-22 08:36 34.76587 -88.04449 7213 ft 182 kts 97°
2026-04-22 08:36 34.76478 -88.02923 7215 ft 182 kts 100°
2026-04-22 08:37 34.76332 -88.01396 7213 ft 181 kts 101°
2026-04-22 08:37 34.76182 -87.99875 7213 ft 181 kts 101°
2026-04-22 08:37 34.76034 -87.98351 7213 ft 181 kts 101°
2026-04-22 08:37 34.75886 -87.96829 7213 ft 181 kts 101°
2026-04-22 08:38 34.75738 -87.95308 7215 ft 181 kts 101°
2026-04-22 08:38 34.75590 -87.93785 7215 ft 181 kts 101°
2026-04-22 08:38 34.75442 -87.92267 7214 ft 181 kts 101°
2026-04-22 08:38 34.75293 -87.90746 7214 ft 181 kts 101°
2026-04-22 08:39 34.75145 -87.89226 7214 ft 181 kts 101°
2026-04-22 08:39 34.74996 -87.87708 7214 ft 181 kts 101°
2026-04-22 08:39 34.74848 -87.86194 7213 ft 181 kts 101°
2026-04-22 08:39 34.74699 -87.84677 7212 ft 181 kts 101°
2026-04-22 08:40 34.74550 -87.83160 7215 ft 180 kts 101°
2026-04-22 08:40 34.74401 -87.81648 7214 ft 181 kts 101°
2026-04-22 08:40 34.74251 -87.80126 7214 ft 181 kts 101°
2026-04-22 08:40 34.74102 -87.78607 7215 ft 181 kts 101°
2026-04-22 08:41 34.73951 -87.77085 7211 ft 181 kts 101°
2026-04-22 08:41 34.73803 -87.75584 7212 ft 181 kts 101°
2026-04-22 08:41 34.73653 -87.74068 7210 ft 181 kts 101°
2026-04-22 08:41 34.73503 -87.72548 7209 ft 181 kts 101°
2026-04-22 08:42 34.73352 -87.71033 7212 ft 181 kts 101°
2026-04-22 08:42 34.73202 -87.69514 7198 ft 182 kts 101°
2026-04-22 08:42 34.73049 -87.67986 7197 ft 183 kts 101°
2026-04-22 08:42 34.72896 -87.66452 7197 ft 183 kts 101°
2026-04-22 08:43 34.72743 -87.64913 7197 ft 183 kts 101°
2026-04-22 08:43 34.72589 -87.63376 7198 ft 183 kts 101°
2026-04-22 08:43 34.72435 -87.61836 7197 ft 183 kts 101°
2026-04-22 08:43 34.72281 -87.60299 7197 ft 183 kts 101°
2026-04-22 08:44 34.72127 -87.58758 7197 ft 184 kts 101°
2026-04-22 08:44 34.71972 -87.57218 7198 ft 183 kts 101°
2026-04-22 08:44 34.71817 -87.55679 7197 ft 184 kts 101°
2026-04-22 08:44 34.71662 -87.54140 7196 ft 183 kts 101°
2026-04-22 08:45 34.71508 -87.52602 7195 ft 184 kts 101°
2026-04-22 08:45 34.71352 -87.51062 7197 ft 184 kts 101°
2026-04-22 08:45 34.71196 -87.49524 7198 ft 184 kts 101°
2026-04-22 08:45 34.71040 -87.47982 7193 ft 184 kts 101°
2026-04-22 08:46 34.70884 -87.46441 7193 ft 184 kts 101°
2026-04-22 08:46 34.70728 -87.44903 7190 ft 183 kts 100°
2026-04-22 08:46 34.70573 -87.43371 7190 ft 183 kts 101°
2026-04-22 08:46 34.70416 -87.41837 7191 ft 183 kts 101°
2026-04-22 08:47 34.70261 -87.40305 7188 ft 183 kts 101°
2026-04-22 08:47 34.70105 -87.38776 7187 ft 182 kts 100°
2026-04-22 08:47 34.69949 -87.37245 7186 ft 182 kts 101°
2026-04-22 08:47 34.69792 -87.35719 7185 ft 182 kts 101°
2026-04-22 08:48 34.69636 -87.34189 7184 ft 182 kts 101°
2026-04-22 08:48 34.69480 -87.32665 7179 ft 182 kts 100°
2026-04-22 08:48 34.69323 -87.31131 7177 ft 183 kts 100°
2026-04-22 08:48 34.69165 -87.29598 7176 ft 184 kts 100°
2026-04-22 08:49 34.69008 -87.28078 7175 ft 184 kts 100°
2026-04-22 08:49 34.68850 -87.26537 7175 ft 184 kts 100°
2026-04-22 08:49 34.68691 -87.24995 7177 ft 184 kts 100°
2026-04-22 08:49 34.68532 -87.23451 7177 ft 184 kts 100°
2026-04-22 08:50 34.68371 -87.21907 7174 ft 184 kts 100°
2026-04-22 08:50 34.68212 -87.20364 7174 ft 184 kts 100°
2026-04-22 08:50 34.68052 -87.18820 7173 ft 184 kts 100°
2026-04-22 08:50 34.67892 -87.17275 7187 ft 184 kts 100°
2026-04-22 08:51 34.67731 -87.15730 7190 ft 184 kts 100°
2026-04-22 08:51 34.67570 -87.14185 7190 ft 184 kts 100°
2026-04-22 08:51 34.67410 -87.12642 7191 ft 184 kts 100°
2026-04-22 08:51 34.67249 -87.11100 7191 ft 184 kts 100°
2026-04-22 08:52 34.67088 -87.09554 7190 ft 184 kts 100°
2026-04-22 08:52 34.66926 -87.08012 7190 ft 184 kts 100°
2026-04-22 08:52 34.66765 -87.06467 7190 ft 184 kts 100°
2026-04-22 08:52 34.66602 -87.04921 7190 ft 184 kts 100°
2026-04-22 08:53 34.66441 -87.03377 7190 ft 184 kts 100°
2026-04-22 08:53 34.66278 -87.01831 7190 ft 184 kts 100°
2026-04-22 08:53 34.66116 -87.00288 7189 ft 184 kts 100°
2026-04-22 08:53 34.65952 -86.98743 7189 ft 184 kts 100°
2026-04-22 08:54 34.65790 -86.97196 7188 ft 184 kts 100°
2026-04-22 08:54 34.65626 -86.95652 7188 ft 184 kts 100°
2026-04-22 08:54 34.65464 -86.94107 7188 ft 184 kts 101°
2026-04-22 08:54 34.65299 -86.92562 7187 ft 184 kts 101°
2026-04-22 08:55 34.65132 -86.90998 7120 ft 187 kts 101°
2026-04-22 08:55 34.64968 -86.89438 7124 ft 186 kts 101°
2026-04-22 08:55 34.64814 -86.87934 7352 ft 171 kts 101°
2026-04-22 08:55 34.64662 -86.86499 7372 ft 176 kts 101°
2026-04-22 08:56 34.64497 -86.85014 7267 ft 185 kts 101°
2026-04-22 08:56 34.64324 -86.83440 7130 ft 191 kts 101°
2026-04-22 08:56 34.64151 -86.81819 6999 ft 195 kts 101°
2026-04-22 08:56 34.63979 -86.80166 6775 ft 198 kts 102°
2026-04-22 08:57 34.63763 -86.78544 6674 ft 188 kts 102°
2026-04-22 08:57 34.63585 -86.76983 6353 ft 192 kts 101°
2026-04-22 08:57 34.63420 -86.75362 5761 ft 199 kts 99°
2026-04-22 08:57 34.63370 -86.73691 5410 ft 192 kts 93°
2026-04-22 08:58 34.63369 -86.72085 5054 ft 188 kts 95°
2026-04-22 08:58 34.63127 -86.70587 4802 ft 174 kts 121°
2026-04-22 08:58 34.62312 -86.69852 4883 ft 139 kts 186°
2026-04-22 08:58 34.61749 -86.70650 4726 ft 141 kts 264°
2026-04-22 08:59 34.61842 -86.71952 4137 ft 165 kts 272°
2026-04-22 08:59 34.61966 -86.73371 3697 ft 169 kts 278°
2026-04-22 08:59 34.62580 -86.74531 3503 ft 169 kts 317°
2026-04-22 08:59 34.63673 -86.75178 3108 ft 177 kts 345°
2026-04-22 09:00 34.64875 -86.75196 2959 ft 170 kts
2026-04-22 09:00 34.66027 -86.75022 2641 ft 165 kts
2026-04-22 09:00 34.67143 -86.74942 2271 ft 149 kts
2026-04-22 09:00 34.68067 -86.75202 1796 ft 133 kts 316°
2026-04-22 09:01 34.68270 -86.76152 1661 ft 108 kts 261°
2026-04-22 09:01 34.68152 -86.77026 1524 ft 101 kts 256°
2026-04-22 09:01 34.67956 -86.77785 1441 ft 87 kts 242°
2026-04-22 09:01 34.67445 -86.78098 1209 ft 90 kts 188°
2026-04-22 09:02 34.66828 -86.78149 1001 ft 88 kts 182°
2026-04-22 09:02 34.66237 -86.78177 857 ft 82 kts 180°
2026-04-22 09:02 34.65671 -86.78182 716 ft 80 kts 178°
2026-04-22 09:02 34.65145 -86.78206 640 ft 72 kts 179°
2026-04-22 09:03 34.64670 -86.78216 632 ft 61 kts 179°
2026-04-22 09:03 34.64327 -86.78220 627 ft 39 kts 180°
2026-04-22 09:03 34.64181 -86.78167 628 ft 11 kts 102°
2026-04-22 09:03 34.64179 -86.78156 628 ft 0 kts 96°
2026-04-22 09:04 34.64179 -86.78153 628 ft 3 kts 96°
2026-04-22 09:04 34.64178 -86.78088 628 ft 12 kts 90°
2026-04-22 09:04 34.64203 -86.77988 634 ft 13 kts 31°
2026-04-22 09:05 34.64306 -86.77977 630 ft 15 kts 11°
2026-04-22 09:05 34.64394 -86.77884 634 ft 20 kts 51°
2026-04-22 09:05 34.64496 -86.77732 630 ft 21 kts 55°
2026-04-22 09:05 34.64524 -86.77637 629 ft 13 kts 355°
2026-04-22 09:06 34.64633 -86.77631 630 ft 17 kts
2026-04-22 09:06 34.64756 -86.77621 627 ft 13 kts 43°
2026-04-22 09:06 34.64761 -86.77576 630 ft 0 kts 98°